Temp
8 7 7 7 7 7 8 8 8 7 7 7 7 7 8 8 7 7 7 6 6 6 5 5 5 4 4 4 4 4 4 3 3 3 3 4 4 3 3 3 3 4 4
7 7 7 7 7 7 8 8 7 7 7 7 7 7 7 7 7 6 6 5 5 6 5 5 4 4 4 4 4 4 4 4 3 3 3 3 3 4 3 3 3 3 4
8 7 7 7 7 7 8 7 7 7 7 7 7 7 7 6 6 6 6 6 6 5 5 4 4 4 4 4 4 4 4 4 4 4 3 4 4 4 4 3 4 4 3
8 7 7 7 7 7 7 7 7 7 7 7 7 7 7 7 7 6 6 6 6 5 5 5 4 4 4 4 4 4 4 4 4 4 4 4 4 3 3 4 4 4 4
7 7 7 7 7 7 7 7 7 7 7 7 7 7 7 7 7 6 6 6 6 5 5 4 4 4 4 4 4 4 4 4 4 4 4 4 3 3 3 3 3 3 3
7 7 7 7 7 7 7 7 7 7 7 6 6 6 7 7 6 6 6 6 5 5 4 4 4 4 4 4 4 4 4 4 4 4 4 4 3 3 3 3 3 2 2
7 7 7 7 7 7 7 7 6 6 6 6 6 7 6 6 6 6 5 5 5 4 4 4 4 4 4 4 3 3 3 3 4 4 4 4 3 3 3 3 2 2 2
7 7 7 7 7 7 7 6 6 6 6 6 6 6 6 6 5 5 5 5 5 4 4 4 3 3 3 3 3 3 3 3 3 4 4 3 3 3 4 3 2 2 2
7 7 7 7 6 7 6 6 6 6 6 6 6 6 5 5 5 5 5 5 4 4 4 3 3 3 3 3 3 3 3 3 3 3 3 4 3 3 3 3 3 3 2
7 6 6 6 6 6 6 6 6 6 6 6 5 5 5 5 4 4 4 4 4 4 4 4 3 3 3 2 2 2 2 2 2 2 3 3 3 3 3 3 3 3 3
6 6 5 6 5 6 5 5 5 5 5 5 5 5 5 4 4 4 4 4 4 4 4 3 3 3 2 2 2 2 2 2 2 2 2 2 2 2 3 3 2 3 2
6 5 5 5 5 5 5 5 5 5 5 5 4 4 4 4 4 4 4 4 3 3 3 3 3 3 3 2 2 2 2 1 1 2 1 2 2 2 2 2 2 2 2
6 5 5 5 5 5 4 5 4 4 4 4 4 4 4 4 4 3 3 3 3 2 2 2 3 3 2 2 2 2 2 1 1 1 1 1 1 1 1 1 1 1 1
5 5 4 5 4 4 4 5 4 4 4 4 4 4 4 3 3 3 2 2 2 2 2 2 2 2 2 2 2 2 2 1 1 0 1 1 1 1 1 1 1 1 1
4 4 4 4 3 4 4 4 4 4 4 4 3 3 3 3 2 2 2 2 1 1 1 1 1 1 1 1 1 2 2 2 1 1 0 1 1 -0 -0 -0 0 0 1
4 4 4 4 4 4 4 4 4 3 3 3 2 3 2 3 2 2 1 1 1 1 1 0 0 0 0 1 1 1 1 1 1 0 -0 -0 0 0 0 -0 -1 -1 -0
5 5 5 4 4 4 4 4 3 3 2 2 2 3 2 2 2 2 1 1 0 -0 0 0 -0 -1 -1 -0 -0 -0 -0 -0 1 0 -0 -1 -1 -1 -0 -1 -1 -1 -1
5 4 4 4 4 4 4 4 3 3 2 2 2 2 2 1 1 0 -0 -1 -1 -1 -1 -1 -1 -1 -1 -1 -1 -1 -1 -2 -2 -2 -1 -1 -1 -1 -1 -1 -2 -2 -1
4 4 4 3 3 3 3 3 4 3 2 2 2 1 1 0 -1 -1 -2 -1 -1 -1 -0 -0 -1 -1 -1 -1 -1 -1 -1 -2 -2 -3 -3 -3 -3 -2 -2 -2 -2 -2 -3
4 4 4 3 3 2 3 3 3 2 1 1 1 0 0 -0 -1 -2 -1 -1 -1 -1 -1 -1 -1 -2 -2 -2 -2 -2 -2 -2 -3 -4 -3 -3 -3 -3 -3 -3 -2 -1 -1
4 4 4 3 3 3 2 2 1 1 1 0 0 -0 -1 -1 -2 -2 -2 -1 -2 -1 -2 -3 -3 -3 -3 -3 -3 -3 -3 -3 -3 -4 -4 -4 -4 -4 -4 -3 -3 -3 -3
4 4 3 3 2 1 1 1 1 1 0 -0 -1 -1 -1 -1 -2 -2 -2 -2 -2 -3 -3 -4 -4 -4 -4 -4 -4 -4 -4 -3 -3 -4 -4 -4 -4 -4 -4 -5 -5 -4 -4
3 3 2 2 1 1 1 1 1 -0 -1 -1 -1 -1 -1 -1 -1 -2 -2 -3 -4 -4 -5 -5 -6 -6 -6 -6 -5 -5 -5 -5 -5 -4 -4 -4 -4 -4 -4 -5 -5 -5 -5
2 2 1 1 1 1 1 0 0 -0 -0 -1 -1 -1 -2 -2 -2 -2 -3 -5 -6 -6 -5 -6 -6 -7 -7 -7 -6 -6 -6 -6 -6 -5 -5 -5 -5 -5 -5 -5 -5 -6 -7
2 2 1 1 1 1 0 1 0 -0 -0 -1 -1 -2 -2 -2 -3 -5 -6 -7 -6 -6 -7 -7 -7 -7 -6 -7 -7 -8 -8 -8 -10 -10 -8 -7 -8 -7 -7 -7 -7 -7 -7
1 1 1 1 1 1 1 0 -1 -1 -1 -1 -2 -3 -4 -4 -5 -5 -6 -7 -7 -7 -6 -7 -7 -7 -7 -8 -8 -9 -9 -10 -11 -12 -11 -10 -10 -10 -10 -10 -10 -9 -9
Height
3183 3184 3187 3189 3191 3193 3194 3194 3194 3194 3193 3193 3193 3192 3192 3192 3191 3189 3187 3187 3185 3183 3181 3180 3177 3177 3177 3175 3175 3173 3172 3172 3171 3171 3171 3170 3170 3172 3173 3172 3171 3171 3172
3182 3185 3187 3189 3191 3193 3194 3194 3194 3194 3193 3193 3193 3192 3192 3191 3189 3188 3186 3185 3184 3181 3180 3178 3176 3174 3174 3173 3173 3171 3170 3171 3170 3168 3168 3169 3168 3169 3170 3172 3172 3172 3171
3181 3184 3187 3189 3192 3193 3193 3193 3194 3193 3193 3193 3192 3192 3191 3189 3187 3185 3184 3184 3183 3181 3179 3177 3176 3172 3172 3172 3170 3169 3168 3168 3169 3168 3167 3167 3166 3168 3168 3168 3170 3170 3170
3182 3184 3187 3189 3191 3193 3193 3193 3193 3193 3193 3192 3191 3190 3189 3188 3186 3185 3183 3183 3182 3180 3178 3175 3175 3173 3171 3170 3169 3168 3167 3166 3165 3165 3167 3167 3166 3164 3165 3166 3165 3166 3168
3182 3184 3188 3190 3192 3193 3193 3193 3192 3192 3192 3191 3190 3189 3188 3186 3185 3184 3183 3182 3180 3179 3178 3176 3175 3173 3171 3170 3169 3168 3167 3165 3164 3163 3163 3163 3164 3164 3164 3163 3163 3162 3163
3183 3185 3188 3190 3192 3193 3193 3192 3191 3192 3191 3191 3189 3189 3187 3186 3185 3184 3183 3180 3179 3178 3178 3175 3175 3173 3171 3169 3168 3166 3165 3163 3163 3162 3162 3162 3162 3162 3160 3159 3160 3161 3160
3184 3187 3188 3190 3191 3192 3191 3190 3190 3190 3189 3189 3189 3188 3187 3185 3184 3182 3182 3180 3179 3177 3177 3174 3173 3171 3170 3168 3166 3165 3163 3161 3160 3161 3160 3160 3160 3160 3159 3158 3157 3157 3159
3186 3187 3188 3189 3190 3190 3189 3189 3189 3188 3188 3187 3188 3188 3187 3185 3184 3182 3180 3178 3179 3176 3176 3172 3171 3169 3167 3165 3164 3162 3160 3159 3158 3159 3158 3157 3157 3157 3157 3157 3157 3156 3157
3186 3187 3188 3188 3188 3188 3188 3188 3188 3187 3187 3188 3187 3187 3185 3184 3183 3181 3181 3177 3176 3176 3173 3170 3168 3166 3164 3162 3160 3158 3156 3155 3154 3156 3155 3154 3154 3153 3153 3153 3154 3154 3154
3186 3187 3187 3187 3188 3188 3188 3189 3189 3188 3187 3187 3187 3187 3184 3183 3181 3179 3178 3178 3176 3175 3173 3170 3167 3165 3162 3160 3158 3155 3152 3151 3150 3151 3151 3150 3149 3149 3148 3148 3148 3148 3149
3185 3186 3187 3187 3187 3187 3189 3187 3189 3187 3188 3187 3187 3187 3185 3185 3182 3180 3179 3177 3174 3174 3172 3170 3167 3164 3161 3158 3156 3154 3151 3149 3148 3148 3147 3145 3145 3144 3145 3144 3143 3144 3144
3184 3186 3187 3187 3187 3187 3189 3189 3188 3188 3188 3188 3186 3186 3185 3184 3181 3179 3177 3176 3173 3171 3170 3168 3165 3163 3161 3158 3155 3152 3149 3146 3145 3145 3144 3143 3141 3140 3139 3139 3139 3139 3140
3184 3185 3185 3186 3187 3187 3187 3187 3188 3187 3186 3186 3185 3182 3182 3181 3179 3178 3176 3173 3171 3169 3168 3166 3163 3161 3159 3156 3153 3150 3146 3143 3141 3140 3139 3138 3138 3137 3136 3135 3135 3134 3134
3181 3183 3184 3184 3184 3185 3186 3186 3186 3186 3184 3184 3183 3180 3177 3175 3174 3174 3172 3170 3168 3166 3164 3163 3160 3159 3156 3153 3150 3147 3144 3141 3138 3136 3135 3134 3133 3132 3131 3130 3130 3130 3130
3179 3181 3181 3181 3182 3182 3184 3185 3182 3183 3182 3181 3180 3177 3176 3173 3171 3170 3168 3165 3162 3160 3158 3156 3154 3152 3150 3148 3146 3143 3140 3137 3134 3132 3130 3130 3128 3126 3126 3125 3124 3123 3124
3179 3180 3182 3181 3182 3182 3180 3179 3179 3178 3178 3176 3177 3175 3173 3171 3170 3168 3165 3162 3159 3157 3154 3151 3149 3146 3143 3140 3139 3137 3135 3132 3129 3126 3123 3122 3121 3121 3119 3119 3118 3117 3116
3176 3177 3179 3181 3180 3182 3180 3179 3176 3175 3174 3173 3173 3171 3170 3168 3167 3164 3161 3158 3155 3151 3148 3145 3142 3139 3136 3133 3130 3127 3126 3124 3123 3120 3118 3115 3113 3112 3112 3111 3110 3110 3109
3174 3176 3178 3179 3180 3180 3178 3177 3176 3174 3172 3172 3169 3167 3165 3163 3161 3158 3155 3152 3149 3146 3142 3138 3133 3128 3125 3123 3121 3119 3116 3115 3114 3113 3112 3109 3107 3104 3103 3102 3102 3102 3103
3174 3176 3176 3174 3176 3176 3174 3173 3173 3172 3171 3169 3167 3163 3160 3158 3155 3152 3149 3147 3143 3139 3135 3130 3125 3119 3116 3114 3112 3110 3108 3106 3105 3104 3101 3098 3096 3094 3093 3093 3092 3092 3093
3174 3175 3174 3173 3171 3170 3171 3169 3167 3166 3166 3165 3163 3159 3156 3153 3150 3147 3144 3139 3133 3128 3125 3122 3117 3113 3109 3104 3100 3098 3097 3096 3095 3094 3091 3089 3086 3085 3084 3083 3083 3084 3083
3173 3173 3172 3171 3168 3165 3165 3164 3163 3163 3161 3158 3156 3153 3150 3147 3144 3141 3135 3129 3124 3119 3114 3110 3106 3103 3100 3095 3090 3087 3085 3085 3084 3084 3079 3078 3076 3074 3073 3073 3072 3071 3073
3173 3171 3169 3168 3165 3162 3161 3162 3160 3158 3155 3153 3150 3146 3144 3140 3135 3130 3124 3118 3113 3108 3104 3100 3096 3092 3089 3085 3079 3074 3067 3071 3073 3071 3068 3065 3063 3062 3061 3059 3059 3060 3060
3168 3167 3165 3164 3164 3162 3160 3158 3156 3154 3151 3149 3145 3142 3137 3130 3124 3119 3113 3108 3102 3097 3092 3088 3085 3081 3076 3073 3070 3065 3057 3052 3049 3053 3056 3053 3050 3048 3047 3046 3045 3043 3044
3166 3164 3162 3161 3160 3159 3157 3154 3152 3149 3146 3141 3137 3132 3125 3121 3114 3108 3102 3097 3092 3087 3083 3078 3074 3069 3065 3060 3056 3052 3047 3042 3035 3030 3032 3035 3036 3035 3033 3031 3029 3029 3029
3163 3161 3160 3160 3157 3154 3151 3149 3145 3141 3136 3132 3127 3122 3116 3109 3102 3095 3091 3086 3082 3077 3071 3066 3062 3058 3053 3047 3042 3037 3034 3029 3025 3020 3012 3013 3013 3016 3019 3016 3013 3012 3013
3158 3156 3155 3154 3150 3146 3143 3138 3135 3131 3126 3120 3115 3109 3104 3098 3093 3088 3083 3077 3072 3066 3061 3056 3050 3045 3040 3035 3030 3026 3021 3017 3012 3008 3003 3000 2997 2999 3003 3003 3001 2999 2998
Wind_Speed
14 17 16 15 11 9 8 3 1 1 1 2 3 4 6 9 11 14 16 18 18 19 18 18 17 17 17 16 16 16 15 13 12 11 12 15 14 10 8 10 11 11 12
15 16 17 14 10 10 6 2 4 4 3 4 3 5 9 12 14 17 17 16 16 14 16 17 16 13 14 14 14 15 17 17 14 14 13 13 15 15 13 11 11 12 16
12 16 14 11 10 8 6 5 7 8 6 4 6 9 12 15 17 14 12 10 9 13 15 15 14 13 12 11 13 13 15 16 15 15 14 16 16 13 12 15 10 14 14
12 13 10 10 10 9 6 8 9 7 5 7 8 12 15 14 12 9 8 8 11 14 13 13 12 13 12 10 10 10 12 13 13 11 13 14 14 14 12 10 15 13 17
13 11 11 10 9 7 9 6 5 6 8 10 11 13 9 11 10 7 8 11 13 13 13 13 13 13 13 12 11 11 12 11 11 12 12 11 10 11 14 15 14 10 10
11 10 9 9 9 8 5 5 7 10 11 11 10 5 10 10 10 10 11 12 13 14 14 14 15 16 14 14 13 14 15 15 13 10 10 10 10 11 15 13 20 17 7
10 10 9 7 5 4 7 10 12 12 10 6 3 7 9 10 11 11 13 14 14 15 16 16 17 18 19 19 18 17 17 16 15 11 9 8 9 11 12 11 4 6 9
8 8 6 4 5 8 11 9 6 3 2 1 5 7 9 9 11 13 13 15 17 18 19 19 18 18 17 18 19 19 18 18 17 16 14 11 11 13 12 10 11 11 10
6 4 4 4 6 5 0 1 1 2 2 4 5 6 7 9 10 11 15 17 19 21 22 23 22 22 21 19 19 18 17 16 18 16 15 16 13 11 10 11 11 14 14
5 3 3 5 3 2 2 1 1 2 3 3 3 5 7 10 11 13 16 17 18 19 20 21 22 21 21 20 18 17 16 15 16 15 13 15 16 15 13 11 12 12 15
4 2 3 4 3 3 3 2 2 3 3 4 6 7 8 10 13 16 17 18 19 19 19 19 19 19 19 19 18 17 14 14 14 12 11 12 13 14 15 15 14 14 13
6 3 2 4 4 3 4 4 4 6 6 5 5 9 11 15 18 20 21 21 20 20 21 18 17 17 16 16 17 18 18 16 15 13 10 9 11 12 14 13 15 17 17
2 6 6 7 7 4 3 4 3 4 4 7 10 13 15 17 20 23 24 22 21 22 20 17 17 19 19 18 17 17 18 19 19 19 16 13 11 11 14 14 16 17 19
7 9 7 6 6 6 6 4 6 6 8 10 11 15 17 20 22 26 25 25 26 27 24 21 21 21 21 19 20 22 20 19 19 20 21 19 14 11 13 15 17 19 20
5 7 3 1 4 7 9 10 12 14 15 15 15 17 18 20 21 26 28 24 29 31 29 28 30 29 26 26 27 25 24 21 21 20 20 19 19 16 13 14 16 19 21
5 7 8 11 6 21 11 15 16 19 20 20 19 20 22 24 24 31 32 31 33 33 31 33 35 35 33 33 29 29 25 24 24 25 25 25 24 21 21 17 15 18 21
8 6 12 12 17 19 11 16 15 18 21 24 25 26 28 28 29 38 37 38 37 36 40 42 44 41 39 35 34 32 30 29 24 24 28 28 29 29 27 24 22 18 16
9 14 11 15 17 20 14 12 14 18 24 24 29 30 28 34 41 38 37 35 39 39 48 49 44 43 38 40 37 34 32 32 30 32 29 29 31 31 31 29 26 23 19
12 13 15 16 20 16 16 18 21 21 20 22 26 27 32 35 31 30 32 37 42 47 40 37 36 38 37 38 38 37 35 34 33 34 35 36 34 34 32 31 29 29 26
12 13 16 18 21 21 22 22 18 17 21 26 28 27 32 35 33 33 41 50 45 43 41 40 39 38 40 41 40 40 37 35 35 36 39 39 39 39 38 37 33 33 33
16 18 18 19 24 21 20 13 15 22 26 29 32 32 30 33 36 46 45 46 45 48 47 42 41 40 40 39 42 42 41 38 38 38 41 42 43 43 40 41 40 37 34
20 21 20 15 15 14 13 18 23 25 28 28 30 36 41 41 44 42 46 48 49 45 42 41 42 43 42 42 45 46 50 47 42 41 43 46 46 46 44 41 42 40 39
10 7 7 7 10 15 20 24 26 27 29 34 36 36 36 41 44 47 49 47 43 42 43 43 42 44 46 46 46 48 51 53 54 49 47 48 49 50 51 51 50 52 50
6 9 12 13 17 21 24 26 28 31 34 37 38 38 38 43 48 49 45 41 41 43 46 47 46 45 46 47 47 47 47 49 53 59 57 53 51 51 52 54 55 53 50
18 19 18 21 24 23 24 26 26 29 29 32 37 39 45 48 49 49 42 40 43 44 41 43 43 44 46 47 47 47 47 48 49 49 58 57 55 50 49 52 54 57 56
16 19 17 14 20 22 27 34 36 39 42 44 46 50 48 50 49 56 44 43 42 44 44 44 46 49 51 51 49 47 46 46 47 45 48 52 49 48 42 41 44 48 49
Wind_Direction
185 188 194 195 197 189 182 187 275 320 351 360 337 355 339 323 302 294 305 308 310 311 309 307 305 305 301 299 301 310 315 316 307 286 277 282 283 270 262 268 268 268 265
188 200 196 196 195 189 203 245 283 293 297 306 319 323 310 291 300 305 302 305 307 313 314 313 309 305 300 297 296 301 307 308 301 294 277 260 274 285 285 296 294 284 265
182 193 192 192 191 199 211 258 282 288 289 282 294 295 302 302 309 322 324 326 341 346 347 344 338 338 328 312 305 304 301 298 293 284 281 293 297 291 289 288 290 290 274
170 175 180 191 197 203 231 274 281 277 268 292 294 304 313 319 329 341 360 7 2 1 5 13 15 12 4 351 339 335 330 323 311 291 280 277 271 278 274 293 273 289 270
160 164 174 186 194 221 261 272 270 263 287 295 300 310 323 336 342 350 359 355 358 358 2 10 5 0 358 353 344 337 333 336 326 314 300 292 285 277 277 273 297 276 265
157 156 168 187 211 242 251 271 275 281 281 287 300 323 337 348 351 350 351 351 353 356 354 352 347 343 339 335 331 324 323 324 324 338 324 299 284 289 312 273 254 259 256
157 164 174 189 211 253 276 273 267 269 276 294 315 336 340 348 344 346 347 355 358 359 353 348 342 337 333 328 324 319 316 314 313 314 310 307 300 300 308 307 289 198 247
160 172 184 219 257 276 278 274 263 261 299 315 331 351 352 346 345 356 355 1 359 1 356 351 344 338 333 327 322 318 314 309 307 307 304 297 295 293 293 304 260 246 240
163 190 220 270 302 302 199 171 279 355 2 338 354 353 347 358 352 354 358 2 0 357 352 350 347 346 343 342 336 327 316 309 304 300 293 291 289 286 283 281 280 271 262
194 219 290 324 351 30 10 15 17 9 9 359 9 12 1 0 1 1 357 352 353 351 349 350 349 351 350 351 351 345 330 320 312 309 301 289 282 275 270 262 264 270 271
236 268 313 351 26 360 14 33 22 22 28 27 14 9 0 345 348 351 346 346 348 348 349 345 344 347 352 350 350 348 346 342 337 333 317 296 279 267 261 261 262 260 259
243 198 353 60 52 16 12 360 32 22 8 10 2 357 346 348 344 339 338 339 338 337 333 332 331 331 333 336 336 335 336 333 332 332 326 310 289 282 274 260 255 262 268
11 57 74 58 47 14 339 355 352 346 340 343 339 340 335 337 339 332 333 331 327 325 324 320 319 318 319 322 326 328 328 325 322 320 321 318 308 292 280 269 258 251 254
50 44 36 31 11 331 313 327 303 300 307 315 323 322 329 331 333 332 323 319 317 316 316 312 313 310 308 311 315 313 310 308 308 311 311 311 305 288 275 271 267 260 253
1 5 30 321 274 299 309 299 295 294 296 304 310 313 315 321 322 325 317 314 320 317 314 313 317 315 310 302 306 306 303 300 302 301 302 297 296 297 286 274 264 262 259
298 294 291 317 292 330 296 296 290 303 300 303 297 301 306 311 312 320 315 307 311 314 312 313 312 308 304 301 295 297 294 290 290 293 300 301 297 291 292 284 277 268 259
296 289 284 294 266 304 281 301 281 287 285 284 290 298 303 304 307 316 317 314 310 313 312 309 307 302 299 296 294 294 289 285 281 285 291 295 295 297 295 294 291 285 277
287 252 256 272 281 295 294 298 270 282 284 292 309 306 307 315 317 315 311 306 308 306 307 305 306 303 294 291 287 284 282 283 281 283 284 283 287 288 288 289 288 285 281
250 252 273 248 274 275 291 291 304 308 298 301 310 310 313 310 297 293 294 298 301 302 306 305 301 300 293 291 287 281 278 277 279 279 279 278 278 275 275 276 277 280 281
233 246 266 263 269 277 298 304 305 306 306 311 305 293 293 291 284 291 300 304 306 307 305 302 300 294 291 287 285 283 282 280 278 278 277 276 275 273 274 275 275 276 273
229 250 256 260 279 305 312 291 295 297 299 291 294 288 276 278 287 295 301 303 301 304 303 300 300 295 290 286 285 281 279 277 276 275 273 273 273 273 273 272 271 269 265
239 250 277 301 312 309 283 283 288 290 292 286 282 282 300 301 301 301 300 302 304 300 298 298 298 297 293 289 288 287 287 280 275 273 272 271 269 268 270 270 269 263 264
276 286 296 306 296 290 289 292 294 289 288 291 292 296 295 294 298 301 300 299 298 300 302 300 297 296 294 291 290 290 290 287 287 279 273 270 269 268 268 266 263 265 265
253 273 292 299 304 297 291 290 295 296 294 293 293 294 296 300 304 304 301 302 303 302 298 294 292 291 292 291 291 291 291 290 290 289 284 279 270 267 266 265 264 260 264
272 275 278 291 296 297 298 296 294 299 300 296 301 305 305 305 310 312 302 303 299 295 295 295 290 288 291 295 295 293 291 288 286 285 283 283 281 276 270 267 265 262 258
284 293 295 316 315 304 311 312 313 312 311 312 311 312 308 306 308 311 296 303 296 293 294 295 297 300 299 297 295 293 291 290 290 286 281 281 282 284 281 274 273 271 269